Simultaneous Nadir Overpasses (SNOs) Predictions

Prediction of SNOs between LANDSAT-8 and NOAA-19 Satellite Orbit:

Table of predicted SNOs for the next 14.0 days since TLE Epoch: 1/24/2020
Index Date (LANDSAT-8) Time (LANDSAT-8) Lat,Lon (LANDSAT-8) SZA (LANDSAT-8 ) Date (NOAA-19) Time (NOAA-19) Lat,Lon (NOAA-19) SZA (NOAA-19 ) Distance(km) Time Diff (sec)
1 01/26/2020 15:40:40 79.43, -31.83 98.73 01/26/2020 15:39:50 79.46, -31.94 98.73 3.49 50
2 01/26/2020 16:30:08 -79.40, 135.60 81.33 01/26/2020 16:30:46 -79.42, 135.64 81.29 2.60 38
3 01/28/2020 21:14:23 -79.47, 65.00 81.81 01/28/2020 21:13:11 -79.55, 63.85 81.81 24.88 72
4 01/28/2020 22:03:50 79.43,-127.67 98.13 01/28/2020 22:04:10 79.44,-127.78 98.14 2.75 20
5 01/31/2020 03:37:34 -79.43, -31.10 82.48 01/31/2020 03:37:28 -79.44, -30.99 82.47 2.51 6
6 02/02/2020 09:11:16 79.44, 65.60 96.91 02/02/2020 09:10:51 79.46, 65.53 96.92 2.26 25
7 02/02/2020 10:00:44 -79.42,-126.94 83.14 02/02/2020 10:01:49 -79.43,-126.96 83.11 1.78 65
8 02/04/2020 14:44:59 -79.48, 162.42 83.70 02/04/2020 14:44:10 -79.45, 162.35 83.74 3.61 49
9 02/04/2020 15:34:26 79.43, -30.27 96.23 02/04/2020 15:35:11 79.45, -30.36 96.25 2.46 45
10 02/06/2020 20:18:42 79.46,-101.18 95.60 02/06/2020 20:17:32 79.49,-101.23 95.61 3.50 70




NCC Satellite Simultaneous Nadir Overpasses (SNOs) Prediction Service
